Погода в Кяхте

Россия / Республика Бурятия     50°21′18″N   106°26′59″E
темп.,
°C
ветер,
м/с
пор.,
м/с
влажн.,
%
обл.,
%
осадки,
мм/ч
давл.,
гПа
погр.,
м
12 апреля, пн
пн1223:00−5сз35425 0.0 103775
02:00−7з22454 0.0 103824
05:00−7з22483 0.0 103822
08:00−4ююз22385 0.0 1036238
11:00+1зюз452765 0.0 10331315
14:00+5з462032 0.0 10282049
17:00+6сз261881 0.0 10242365
20:00+2всв3432100 0.0 102555
13 апреля, вт
вт1323:000всв2342100 0.1 102659
02:00−1в225224 0.1 102614
05:00−3ююв1166100 0.0 102610
08:000ю225522 0.0 1025234
11:00+5юз66325 0.0 10211244
14:00+9юз672399 0.0 10161893
17:00+10зюз4624100 0.0 10131667
20:00+7св3334100 0.0 101336
14 апреля, ср
ср1423:00+5всв51052100 0.0 1014396
02:00+1св61194100 0.1 1016756
05:00+1св71170100 0.4 1015981
08:00−1ссв81388100 1.1 10161047
11:00−1ссв81381100 2.0 10171231
14:00+1с81262100 2.8 10171674
17:00+3с71146100 0.1 10161929
20:00−2с226020 0.1 101815
15 апреля, чт
чт1523:00−4з33655 0.0 102036
02:00−5з3473100 0.0 102057
05:00−4юз3373100 0.0 101848
08:00−1зюз4767100 0.0 1017311
11:00+3зюз6740100 0.0 10131461
14:00+5сз5834100 0.0 10112222
17:00+4с91330100 0.0 10132788
20:00−1ссз712481 0.0 1017540
16 апреля, пт
пт1623:00−3ссз410584 0.0 1021291
02:00−5з22691 0.0 102427
05:00−6з33715 0.0 102530
08:00−2зюз23535 0.0 1025271
11:00+3юз45295 0.0 10231627
14:00+7зюз572721 0.0 10191974
17:00+8з4629100 0.0 10171978
20:00+5юз334312 0.0 101825